Explorer 7

operational
NORAD ID: 22 Int'l Des: 1959 IOT Owner: GSFC Country: US
LEOCIRCULAR

Explorer 7について

説明を読み込み中...

リアルタイム位置

3D地球を読み込み中...

次回通過

高度履歴

Altitude vs Time

uPlot chart will show altitude changes over time

軌道要素

1 22U 59009A 26061.26492949 .00016364 00000-0 57433-3 0 9992
2 22 50.2392 267.9768 0081859 54.4280 306.4274 15.26357838784009
Epoch: Mar 2, 2026 • Age: 69 hours

現在のステータス

高度 514.2 km
速度 7.60 km/s
衛星直下点 -32.56°S, 105.38°E
タイプ other

大規模コンステレーション

Loading constellations...